Regional Weather Roundup
Issued by NWS

Home | Current Version | Previous Version | Graphics & Text | Print | Product List | Glossary On
Versions: 1 2 3 4 5 6 7 8 9 10 11 12 13 14 15 16 17 18 19 20 21 22 23 24 25 26 27 28 29 30 31 32 33 34 35 36 37 38 39 40 41 42 43 44 45 46 47 48 49 50
000
ASUS43 KOAX 181010
RWRNE

WEATHER ROUNDUP FOR NEBRASKA
NATIONAL WEATHER SERVICE OMAHA NE
500 AM CDT WED OCT 18 2017

NOTES: SATELLITE DATA IS BEING USED TO AUGMENT CLOUD COVER ABOVE
       12000 FEET.
       "FAIR" INDICATES FEW OR NO CLOUDS BELOW 12,000 FEET WITH NO
       SIGNIFICANT WEATHER AND/OR OBSTRUCTIONS TO VISIBILITY.


NEZ001>004-019>022-054>056-181100-
NEBRASKA PANHANDLE

CITY           SKY/WX    TMP DP  RH WIND       PRES   REMARKS
SCOTTSBLUFF    CLOUDY    40  30  67 N3        29.93F
ALLIANCE       CLOUDY    45  27  49 SW9       29.89F
CHADRON        PTCLDY    43  22  43 S5        29.88R
GORDON         FAIR      52  24  34 W7        29.85R
KIMBALL        CLOUDY    51  22  31 W5        30.01F
SIDNEY         CLOUDY    41  25  53 W7        29.98S
$$

NEZ057>060-069>072-079>082-181100-
SOUTHWEST NEBRASKA

CITY           SKY/WX    TMP DP  RH WIND       PRES   REMARKS
NORTH PLATTE   CLOUDY    49  35  58 NW8       29.90S
IMPERIAL       CLOUDY    45  29  53 SW8       29.94S
LEXINGTON      PTCLDY    51  38  60 CALM      29.90S
MCCOOK         CLOUDY    46  38  73 SW5       29.91F
OGALLALA       PTCLDY    39  32  75 W5        29.93F
$$

NEZ005>010-023>029-035>040-094-181100-
NORTH CENTRAL NEBRASKA

CITY           SKY/WX    TMP DP  RH WIND       PRES   REMARKS
VALENTINE      PTCLDY    53  26  35 SW3       29.80R
AINSWORTH      CLOUDY    52  32  46 SW10      29.81R
BROKEN BOW     PTCLDY    54  36  50 SW5       29.87S
O`NEILL        CLOUDY    49  40  69 S8        29.80F
ORD            CLOUDY    51  37  58 S3        29.85S
THEDFORD       MOCLDY    56  28  34 W9        29.86S
$$

NEZ041-046>049-061>064-073>077-083>087-181100-
SOUTH CENTRAL NEBRASKA

CITY           SKY/WX    TMP DP  RH WIND       PRES   REMARKS
GRAND ISLAND   CLOUDY    50  45  83 S8        29.90F
AURORA         CLOUDY    49  43  81 S10       29.91S
HASTINGS       CLEAR     48  41  76 S7        29.92F
HEBRON         CLEAR     48  44  85 CALM      29.95S
HOLDREGE       CLOUDY    50  42  73 SW5       29.91S
KEARNEY        CLEAR     48  40  73 SW3       29.91S
YORK           CLEAR     48  46  93 S9        29.92S
$$

NEZ011>018-030>034-042>045-181100-
NORTHEAST NEBRASKA

CITY           SKY/WX    TMP DP  RH WIND       PRES   REMARKS
NORFOLK        CLEAR     51  45  79 S10       29.86F
ALBION         CLEAR     49  44  82 SE7       29.87S
BLAIR          CLEAR     52  46  79 S10       29.92F
COLUMBUS       CLEAR     52  44  74 S10       29.91S
FREMONT        CLEAR     53  45  75 S7        29.92S
TEKAMAH        CLEAR     49  45  86 S6        29.91S
WAYNE          CLEAR     49  47  92 S8        29.85F
$$

NEZ050>053-065>068-078-088>093-181100-
SOUTHEAST NEBRASKA

CITY           SKY/WX    TMP DP  RH WIND       PRES   REMARKS
LINCOLN        CLEAR     52  45  77 S3        29.95S
OMAHA EPPLEY   CLEAR     49  43  80 SE10      29.94S
BEATRICE       CLEAR     51  46  81 S8        29.95F
FALLS CITY     CLEAR     51  45  79 S8        29.99S
NEBRASKA CITY  CLEAR     51  47  88 S7        29.96F
PLATTSMOUTH    CLEAR     51  46  84 S8        29.94F
$$

NEZ044-045-051>053-067-181100-
OMAHA AREA

CITY           SKY/WX    TMP DP  RH WIND       PRES   REMARKS
OMAHA EPPLEY   CLEAR     49  43  80 SE10      29.94S
BLAIR          CLEAR     52  46  79 S10       29.92F
FREMONT        CLEAR     53  45  75 S7        29.92S
MILLARD        CLEAR     50  46  87 CALM      29.94S
OFFUTT AFB     CLEAR     42  40  93 E6        29.94F
PLATTSMOUTH    CLEAR     51  46  84 S8        29.94F
WAHOO          FAIR      52  46  79 S7        29.92S
$$



USA.gov is the U.S. government's official web portal to all federal, state and local government web resources and services.